Regional Weather Roundup
Issued by NWS

Home | Current Version | Previous Version | Text Only | Print | Product List | Glossary On
Versions: 1 2 3 4 5 6 7 8 9 10 11 12 13 14 15 16 17 18 19 20 21 22 23 24 25 26 27 28 29 30 31 32 33 34 35 36 37 38 39 40 41 42 43 44 45 46 47 48 49 50
000
ASUS43 KMKX 251621
RWRWI

WISCONSIN REGIONAL WEATHER ROUNDUP
NATIONAL WEATHER SERVICE MILWAUKEE/SULLIVAN WI
1100 AM CDT SAT OCT 25 2014

NOTE: "FAIR" INDICATES FEW OR NO CLOUDS BELOW 12,000 FEET WITH NO
SIGNIFICANT WEATHER AND/OR OBSTRUCTIONS TO VISIBILITY.

WIZ001-002-006>008-014>016-023>028-251700-
NORTHWEST WISCONSIN

CITY           SKY/WX    TMP DP  RH WIND       PRES   REMARKS
SUPERIOR ARPT  SUNNY     55  34  44 W20G25    29.94S
ASHLAND        SUNNY     54  33  45 W17G24    29.91S
HAYWARD        SUNNY     52  31  44 NW14G22   29.95R
SIREN          SUNNY     54  32  43 N13G22    29.99F
CUMBERLAND     SUNNY     52  32  46 NW16G25   29.98S
RICE LAKE      SUNNY     54  32  43 W14G23    29.99S
CHETEK         SUNNY     55  35  46 NW8G18    29.97S
LADYSMITH      SUNNY     55  33  41 NW15G24   29.96R
EAU CLAIRE     SUNNY     57  35  43 NW13      29.98S
MENOMONIE      SUNNY     56  32  40 W21G26    30.00S
NEW RICHMOND   SUNNY     56  33  41 NW15      30.02S
OSCEOLA        SUNNY     55  34  45 W15       30.04F
$$

WIZ003>005-009-010-017-018-251700-
NORTH CENTRAL WISCONSIN

CITY           SKY/WX    TMP DP  RH WIND       PRES   REMARKS
MANITOWISH WTR SUNNY     51  33  49 W17G25    29.86S
ARBOR VITAE    SUNNY     55  35  46 NW10G23   29.86S
WOODRUFF       SUNNY     55  35  46 NW10G23   29.86S
RHINELANDER    SUNNY     53  31  42 NW18G30   29.86S
EAGLE RIVER    SUNNY     53  29  40 NW17G25   29.84S
LAND O LAKES   SUNNY     53  32  44 W13G25    29.84S
PHILLIPS       SUNNY     53  32  46 NW10G20   29.89F
TOMAHAWK       SUNNY     54  31  41 W14G23    29.89S
MEDFORD        SUNNY     53  34  48 NW17      29.91F
MERRILL        SUNNY     56  32  40 NW16G23   29.88F
$$

WIZ029-030-035-036-043>047-251700-
CENTRAL WISCONSIN

CITY           SKY/WX    TMP DP  RH WIND       PRES   REMARKS
WAUSAU         SUNNY     56  32  40 NW18G29   29.88S
MOSINEE        SUNNY     55  36  47 NW17G30   29.90S
MARSHFIELD     SUNNY     56  37  49 NW16      29.93R
STEVENS POINT  SUNNY     55  32  42 NW15G21   29.91S
WAUPACA        SUNNY     62  35  37 W12G20    29.89S
WAUTOMA        CLOUDY    60  37  42 NW17G24   29.92S
WISC RAPIDS    SUNNY     59  34  39 NW14G24   29.94S
CAMP DOUGLAS   SUNNY     61  36  39 NW14G22   29.97S
$$

WIZ011>013-019>022-031-037>040-048>050-251700-
NORTHEAST WISCONSIN

CITY           SKY/WX    TMP DP  RH WIND       PRES   REMARKS
ANTIGO         SUNNY     54  34  46 NW18      29.86S
SHAWANO        SUNNY     60  35  38 NW17G28   29.84F
OCONTO         SUNNY     60  37  41 NW9G17    29.80F
STURGEON BAY   SUNNY     57  37  47 W14G25    29.80S
GREEN BAY      SUNNY     60  38  43 W17G28    29.85S
MANITOWOC      SUNNY     61  39  44 NW22G29   29.84S
APPLETON       SUNNY     57  37  47 W17G24    29.88S
CLINTONVILLE   SUNNY     59  34  38 NW14G28   29.86S
OSHKOSH        SUNNY     60  36  40 W18G26    29.88F
$$

WIZ032>034-041-042-053>061-251700-
SOUTHWEST WISCONSIN

CITY           SKY/WX    TMP DP  RH WIND       PRES   REMARKS
LA CROSSE      SUNNY     62  38  40 NW12      30.00S
SPARTA         SUNNY     61  31  32 NW13G22   29.99R
VIROQUA        SUNNY     59  38  45 NW13      30.01S
BOSCOBEL       SUNNY     63  40  42 NW6       30.02R
PRAIRIE DU CHI SUNNY     61  40  46 NW5       30.03S
PLATTEVILLE    SUNNY     62  42  48 NW13G20   30.03R
$$

WIZ056-057-062-063-064-067-068-251700-
SOUTH CENTRAL WISCONSIN

CITY           SKY/WX    TMP DP  RH WIND       PRES   REMARKS
REEDSBURG      SUNNY     61  36  39 NW13G20   29.97S
BARABOO/DELLS  SUNNY     62  30  30 NW15G22   29.96S
LONE ROCK      SUNNY     66  41  40 W10       29.99S
MINERAL POINT  SUNNY     63  36  36 NW10G17   30.00S
MADISON        SUNNY     63  41  44 NW10G20   29.96F
MIDDLETON      SUNNY     63  39  42 NW12      29.98S
WATERTOWN      SUNNY     61  40  45 NW16      29.94S
MONROE         SUNNY     61  43  51 NW13G18   29.99R
JANESVILLE     SUNNY     64  45  48 NW14G20   29.96
$$

WIZ051-052-058>065-066-070>072-251700-
SOUTHEAST WISCONSIN

CITY           SKY/WX    TMP DP  RH WIND       PRES   REMARKS
MILWAUKEE      MOSUNNY   63  42  46 W15G22    29.92R
WAUKESHA       SUNNY     61  43  51 W14       29.94S
MILWAUKEE/TIMM SUNNY     63  37  39 W13       29.92S
RACINE         SUNNY     64  42  44 NW10      29.94R
BURLINGTON     SUNNY     63  41  45 NW15G21   29.94F
KENOSHA        SUNNY     65  45  48 W14       29.94R
FOND DU LAC    SUNNY     60  40  47 W17       29.90F
SHEBOYGAN      SUNNY     62  37  39 W13G24    29.87F
WEST BEND      SUNNY     61  37  41 W16G23    29.91S
JUNEAU         SUNNY     60  39  46 W12G20    29.94F
$$

LSZ147-162-251700-
LAKE SUPERIOR

STATION/POSITION TIME  TEMP    WIND        PRES    WAVE
                       AIR SEA DIR/SP/G            HT/PER
                 (UTC) (F)     (DEG/KT/KT) (MB)    (FT/S)
W MID LAKE BUOY  1550   48 46  250/ 19/ 23 1008.2R   7/ 6
DEVILS ISLAND    1600   50     270/ 22/ 25 1011.2F
PORT WING        1500   51     270/ 13/ 22 1013.5R
SAXON HARBOR     1500   54     280/  9/ 15 1012.2R
$$

LMZ867-665-643>646-251700-
LAKE MICHIGAN

STATION/POSITION TIME  TEMP    WIND        PRES    WAVE
                       AIR SEA DIR/SP/G            HT/PER
                 (UTC) (F)     (DEG/KT/KT) (MB)    (FT/S)
CHAMBERS ISLAND  1500   58     240/  5/ 13 1008.1F
N MID LAKE BUOY  1550   54 51  270/ 16/ 17 1006.9F   3/ 4
NORTHPORT PIER   1500   57     280/  6/ 14 1007.8S
SISTER BAY       1458          290/ 17/ 19   N/A
KEWAUNEE LAKESHO 1600   59     290/ 15/ 21 1008.9R
SHEBOYGAN LAKESH 1600   61 51  280/ 18/ 21 1011.4F
PORT WASHINGTON  1500   61     300/  8/ 14 1013.2R
ATWATER BUOY     1600   60     280/ 14/ 19 1013.8F
MILWAUKEE LAKESH 1600   63     300/ 11/ 16   N/A
S MID LAKE BUOY  1550   56 54  290/ 16/ 19 1012.7R   2/ 3
KENOSHA   LAKESH 1600   63     310/ 10/ 18 1013.2S
$$

TC  - TEMPERATURE IN CELSIUS
VSB - VISIBILITY IN STATUTE MILES
WCI - WIND CHILL INDEX
HX  - HEAT INDEX




USA.gov is the U.S. government's official web portal to all federal, state and local government web resources and services.